Regional Weather Roundup
Issued by NWS Boston, MA

Current Version | Previous Version | Graphics & Text | Print | Product List | Glossary On
Versions: 1 2 3 4 5 6 7 8 9 10 11 12 13 14 15 16 17 18 19 20 21 22 23 24 25 26 27 28 29 30 31 32 33 34 35 36 37 38 39 40 41 42 43 44 45 46 47 48 49 50
154
ASUS41 KBOX 230910
RWRBOX

REGIONAL WEATHER ROUNDUP
NATIONAL WEATHER SERVICE BOSTON/NORTON MA
400 AM EST THU JAN 23 2020

NOTE:  "FAIR" INDICATES FEW OR NO CLOUDS BELOW 12,000 FEET WITH NO
SIGNIFICANT WEATHER AND/OR OBSTRUCTIONS TO VISIBILITY.

MAZALL-231000-
EASTERN MASSACHUSETTS

CITY           SKY/WX    TMP DP  RH WIND       PRES   REMARKS
BOSTON         FAIR      28  16  60 SW6       30.35F WCI  22
BEVERLY        FAIR      24  15  68 SW3       30.34F
LAWRENCE       FAIR      18  14  84 CALM      30.36F
BEDFORD        FAIR      14  10  84 CALM      30.34F
BLUE HILL        N/A     29  14  53 SW13      30.31F WCI  19
NORWOOD        FAIR      13   6  74 SE3       30.36F
MARSHFIELD     FAIR      23  21  93 SW5       30.37R WCI  17
PLYMOUTH       FAIR      18  15  88 CALM      30.37F
TAUNTON        FAIR      12   9  87 CALM      30.37F
NEW BEDFORD    FAIR      17  14  88 CALM      30.37F
$$

MAZALL-231000-
CAPE COD AND THE ISLANDS

CITY           SKY/WX    TMP DP  RH WIND       PRES   REMARKS
FALMOUTH       CLEAR     14  10  85 CALM      30.38F
HYANNIS        FAIR      18  13  80 CALM      30.37F
CHATHAM        FAIR      22  20  92 SW3       30.39S
PROVINCETOWN   FAIR      32  25  75 SW10      30.38S WCI  24
NANTUCKET      FAIR      22  20  92 NW3       30.38F
MARTHAS VNYRD  FAIR      14  10  84 CALM      30.38F
$$

MAZALL-231000-
CENTRAL AND WESTERN MASSACHUSETTS

CITY           SKY/WX    TMP DP  RH WIND       PRES   REMARKS
WORCESTER      FAIR      27  12  53 W13       30.29F WCI  16
FITCHBURG      FAIR      14  10  84 SE3       30.34F
ORANGE         FAIR       4  -2  76 CALM      30.36S
SPRINGFIELD    FAIR       6   2  82 NE3       30.35F
WESTFIELD      NOT AVBL
NORTH ADAMS    FAIR       7   2  80 CALM      30.37S
PITTSFIELD     FAIR      11   6  81 CALM      30.30F
$$

RIZALL-231000-
RHODE ISLAND

CITY           SKY/WX    TMP DP  RH WIND       PRES   REMARKS
PROVIDENCE     CLEAR     21  18  86 W3        30.38F
NEWPORT        FAIR      25  18  74 W3        30.37F
BLOCK ISLAND   FAIR      29  25  85 W6        30.39F WCI  23
SMITHFIELD     FAIR      20  15  81 S3        30.35F
WESTERLY       FAIR      20  14  77 CALM      30.39F
$$

CTZALL-231000-
CONNECTICUT

CITY           SKY/WX    TMP DP  RH WIND       PRES   REMARKS
BRADLEY INTL   FAIR      13   8  81 CALM      30.36F
HARTFORD       FAIR      16  13  88 S3        30.38F
BRIDGEPORT     FAIR      21  17  84 CALM      30.39F
DANBURY        FAIR      13   9  84 CALM      30.37F
GROTON         FAIR      19  19 100 CALM      30.39F
NEW HAVEN      FAIR      19  14  81 CALM      30.38F
CHESTER        NOT AVBL
MERIDEN        FAIR      15  11  83 CALM      30.38F
WILLIMANTIC    FAIR      12   8  84 CALM      30.39F
OXFORD         FAIR      20  15  81 CALM      30.35F
$$

MEZ002-015-021-024-NHZ003-005-008-011-012-014-VTZ005-008-231000-
NORTHERN NEW ENGLAND

CITY           SKY/WX    TMP DP  RH WIND       PRES   REMARKS
PORTLAND ME    FAIR      24  13  62 S5        30.31F WCI  18
BANGOR ME      FAIR      20  16  84 S3        30.29F
CONCORD NH     FAIR       7   4  87 CALM      30.33F
MANCHESTER NH  FAIR      15  11  83 S3        30.32F
NASHUA NH      FAIR      10   9  95 NW5       30.35F WCI   2
PORTSMOUTH NH  PTCLDY    16  13  86 SW5       30.32F WCI   9
JAFFREY NH     FAIR       9   6  88 CALM      30.30S
KEENE NH       FAIR       4   1  88 CALM      30.37S
BURLINGTON VT  FAIR      29  15  56 S6        30.31S WCI  23
MT. WASHINGTON PTCLDY    21  -6  30 W56         N/A  WCI  -2
$$

NYZ052-076-231000-
EASTERN NEW YORK

CITY           SKY/WX    TMP DP  RH WIND       PRES   REMARKS
ALBANY         FAIR      15  10  80 CALM      30.38S
NEW YORK CITY  FAIR      32  20  61 CALM      30.39S
$$

ANZALL-231000-
MARINE OBSERVATIONS

STATION/POSITION TIME  TEMP    WIND        PRES    VSBY  WAVE
                       AIR SEA DIR/SP/G                  HT/PER
                 (UTC) (F)     (DEG/KT/KT) (MB)    (MI)  (FT/S)
BOSTON BUOY      0850   35 42  260/ 10/ 12 1027.4F         1/11
BUZZARDS BAY     NOT AVBL
NANTUCKET SOUND  0840                        N/A           0
MASS BAY-STELLWA 0804   35 41  260/ 10/ 12 1026.1F  1 7/8  2/ 3
ISLE OF SHOALS   NOT AVBL
S OF BLOCK IS    0830      45                N/A           2/ 8
$$

......................KEY.........................
  SKY/WX - SKY CONDITION/PRESENT WEATHER
  TMP    - TEMPERATURE IN FAHRENHEIT
  DWPT   - DEWPOINT IN FAHRENHEIT
  RH     - RELATIVE HUMIDITY IN PERCENT
  WIND   - DIRECTION AND SPEED IN MPH
  PRES   - MEAN SEA LEVEL PRESSURE IN INCHES OF HG
  WCI    - WIND CHILL INDEX
  VSB    - VISIBILITY IN MILES
  HX     - HEAT INDEX
  TC     - TEMPERATURE IN CELSIUS
  VRB    - VARIABLE WIND DIRECTION
  N/A    - NOT AVAILABLE




USA.gov is the U.S. government's official web portal to all federal, state and local government web resources and services.